Location: Boleita
(10.4833°N, 66.8167°W)
Time: 01:37:34
(UTC+00:00)

SL-16 R/B - Pass Details

Date: 08 November 2025
Orbit: 985 x 1006 km, 99.8° (Epoch: 09 December)

Event Time Altitude Azimuth Distance (km) Brightness Sun altitude
Rises 09:12:56 0° 188° (S) 3,689 5.6 -16.8°
Reaches altitude 10° 09:15:41 10° 199° (SSW) 2,743 4.8 -16.1°
Maximum altitude 09:20:58 30° 258° (WSW) 1,683 3.3 -14.9°
Enters shadow 09:25:08 15° 311° (NW) 2,400 4.0 -13.9°
